User: anonymous   Login
Location: Caltech
(34.1382°N, 118.1253°W)
Time: 19:07:06
(UTC-08:00)
Language:

Gbstr 26 Del rocket - Orbit

View from above orbital plane
View from above orbital plane
View from above satellite
View from above satellite

Ground track
Ground track

The orbit data is extracted from the following two-line orbital elements,

1 25876U 99041E   18051.18172357 -.00000049  00000-0  33572-4 0  9998
2 25876  51.7642  58.3721 0531377  30.8889 332.2188 14.04171922949463
Epoch (UTC): 20 February 2018 04:21:40
Eccentricity: 0.0531377
inclination: 51.7642°
perigee height: 494 km
apogee height: 1265 km
right ascension of ascending node: 58.3721°
argument of perigee: 30.8889°
revolutions per day: 14.04171922
mean anomaly at epoch: 332.2188°
orbit number at epoch: 94946

The dashed part of the orbit path shows where the satellite is in the earth's shadow,  

DLR